^^
Meteo Knjazevac Station Historical Data
Daily Summary for February 21, 2021 Units:  Metric    English   Both
Daily Weekly Monthly Yearly Custom
  High: Low: Average:
Temperature: 17.5 °C 11.6 °C 14.1 °C
Dew Point: 11.9 °C 9.2 °C 10.4 °C
Humidity: 85% 70% 78%
Wind Speed: 3.2km/h 0km/h 1km/h
Wind Gust: 8km/h - -
Wind- - West
Pressure: 1019.9 hPa 1018.5 hPa -
Precipitation: 0 mm    
Historical Graphs
 
 
Tabular Data for February 21, 2021
Time Temperature Dew Point Pressure Wind Wind Speed Wind Gust Humidity Rainfall Rate (Hourly) solar Conditions
00:00 17.5 °C 11.9 °C 1018.5 hPa Calm   3.2 km/h 70% 0 mm 0 W/m2
00:10 17.3 °C 11.8 °C 1018.5 hPa Calm   3.2 km/h 70% 0 mm 0 W/m2
00:20 17.2 °C 11.7 °C 1018.5 hPa Calm   3.2 km/h 70% 0 mm 0 W/m2
00:30 17 °C 11.5 °C 1018.5 hPa SW 1.6 km/h 6.4 km/h 70% 0 mm 0 W/m2
00:40 16.9 °C 11.8 °C 1018.5 hPa South 1.6 km/h 4.8 km/h 72% 0 mm 0 W/m2
00:50 16.7 °C 11.6 °C 1018.5 hPa Calm   3.2 km/h 72% 0 mm 0 W/m2
01:00 16.6 °C 11.6 °C 1018.5 hPa WSW 1.6 km/h 3.2 km/h 72% 0 mm 0 W/m2
01:10 16.3 °C 11.4 °C 1018.5 hPa WNW 1.6 km/h 3.2 km/h 73% 0 mm 0 W/m2
01:20 16.1 °C 11.3 °C 1018.5 hPa Calm   3.2 km/h 73% 0 mm 0 W/m2
01:30 15.8 °C 11.2 °C 1018.5 hPa WSW 1.6 km/h 3.2 km/h 74% 0 mm 0 W/m2
01:40 15.3 °C 10.9 °C 1018.5 hPa Calm   3.2 km/h 75% 0 mm 0 W/m2
01:50 14.9 °C 10.9 °C 1018.8 hPa West 3.2 km/h 8 km/h 77% 0 mm 0 W/m2
02:00 14.9 °C 10.9 °C 1018.8 hPa WNW 1.6 km/h 6.4 km/h 77% 0 mm 0 W/m2
02:10 14.9 °C 10.5 °C 1018.8 hPa WNW 1.6 km/h 4.8 km/h 75% 0 mm 0 W/m2
02:20 14.7 °C 10.7 °C 1018.8 hPa Calm   3.2 km/h 77% 0 mm 0 W/m2
02:30 14.4 °C 10.6 °C 1018.8 hPa NW 1.6 km/h 3.2 km/h 78% 0 mm 0 W/m2
02:40 14.2 °C 10.4 °C 1018.8 hPa NW 1.6 km/h 3.2 km/h 78% 0 mm 0 W/m2
02:50 14 °C 10.4 °C 1018.8 hPa Calm   3.2 km/h 79% 0 mm 0 W/m2
03:00 13.8 °C 10.2 °C 1018.8 hPa Calm   1.6 km/h 79% 0 mm 0 W/m2
03:10 13.6 °C 10.1 °C 1018.8 hPa West 3.2 km/h 6.4 km/h 79% 0 mm 0 W/m2
03:20 13.6 °C 10.2 °C 1019.2 hPa WNW 1.6 km/h 6.4 km/h 80% 0 mm 0 W/m2
03:30 13.3 °C 9.9 °C 1019.2 hPa West 1.6 km/h 3.2 km/h 80% 0 mm 0 W/m2
03:40 13.3 °C 9.9 °C 1019.2 hPa Calm   3.2 km/h 80% 0 mm 0 W/m2
03:50 13.2 °C 9.8 °C 1019.2 hPa Calm   3.2 km/h 80% 0 mm 0 W/m2
04:00 13.1 °C 9.9 °C 1019.2 hPa Calm     81% 0 mm 0 W/m2
04:10 13 °C 9.8 °C 1019.2 hPa Calm   1.6 km/h 81% 0 mm 0 W/m2
04:20 12.9 °C 9.7 °C 1019.2 hPa Calm   3.2 km/h 81% 0 mm 0 W/m2
04:30 12.7 °C 9.6 °C 1019.2 hPa Calm   1.6 km/h 81% 0 mm 0 W/m2
04:40 12.5 °C 9.7 °C 1019.2 hPa WNW 1.6 km/h 4.8 km/h 83% 0 mm 0 W/m2
04:50 12.3 °C 9.7 °C 1019.2 hPa WNW 1.6 km/h 3.2 km/h 84% 0 mm 0 W/m2
05:00 12.2 °C 9.6 °C 1019.5 hPa WNW 1.6 km/h 1.6 km/h 84% 0 mm 0 W/m2
05:10 12.1 °C 9.5 °C 1019.5 hPa Calm   1.6 km/h 84% 0 mm 0 W/m2
05:20 11.9 °C 9.3 °C 1019.5 hPa West 1.6 km/h 3.2 km/h 84% 0 mm 0 W/m2
05:30 11.9 °C 9.4 °C 1019.5 hPa WNW 3.2 km/h 6.4 km/h 85% 0 mm 0 W/m2
05:40 11.9 °C 9.4 °C 1019.5 hPa WNW 1.6 km/h 6.4 km/h 85% 0 mm 0 W/m2
05:50 11.8 °C 9.3 °C 1019.9 hPa Calm   3.2 km/h 85% 0 mm 9 W/m2
06:00 11.7 °C 9.3 °C 1019.9 hPa Calm   3.2 km/h 85% 0 mm 19 W/m2
06:10 11.6 °C 9.2 °C 1019.9 hPa NW 1.6 km/h 3.2 km/h 85% 0 mm 34 W/m2
Knjazevac, Serbia
Compliments of Weather Underground - 2 mb